Regional Weather Roundup
Issued by NWS Bismarck, ND

Home | Current Version | Previous Version | Text Only | Print | Product List | Glossary On
Versions: 1 2 3 4 5 6 7 8 9 10 11 12 13 14 15 16 17 18 19 20 21 22 23 24 25 26 27 28 29 30 31 32 33 34 35 36 37 38 39 40 41 42 43 44 45 46 47 48 49 50
000
ASUS43 KBIS 281502
RWRBIS

NWR BROADCAST TEXT
NATIONAL WEATHER SERVICE BISMARCK ND
1000 AM CDT FRI AUG 28 2015

NOTE: "FAIR" INDICATES FEW OR NO CLOUDS BELOW 12,000 FEET WITH NO
SIGNIFICANT WEATHER AND/OR OBSTRUCTIONS TO VISIBILITY.


CITY           SKY/WX    TMP DP  RH WIND       PRES   REMARKS
WILLISTON      MOSUNNY   65  60  84 S6        29.91R
MINOT          MOSUNNY   71  60  68 SW9       29.85R HAZE
MINOT AFB      MOSUNNY   73  64  74 W9        29.83S
BISMARCK       SUNNY     70  63  78 SW7       29.91S
DICKINSON      SUNNY     71  54  54 W10       29.93S
GARRISON         N/A     68  61  78 SW7       29.88S
HETTINGER ARPT SUNNY     70  58  65 W5        29.98S
JAMESTOWN      SUNNY     69  64  84 S6        29.91R
HAZEN          FAIR      68  59  73 W8        29.90S
OAKES            N/A     64  63  94 S10       29.94S FOG
RUGBY          FAIR      68  64  88 SW9       29.84S
STANLEY        FAIR      68  68 100 CALM      29.90S
$$

CITY           SKY/WX    TMP DP  RH WIND       PRES   REMARKS
GRAND FORKS    PTSUNNY   69  64  84 S10       29.87R
GRAND FORKS AF MOSUNNY   69  65  85 S8        29.87R
DEVILS LAKE    MOSUNNY   72  59  64 SW9       29.85R
FARGO          SUNNY     71  64  78 S12       29.92R
CAVALIER       LGT RAIN  64  64 100 S8        29.83F
GRAFTON        FAIR      66  66 100 SE7       29.88R
GWINNER          N/A     70  70 100 SW8       29.94S
LANGDON        FAIR      68  64  88 S6        29.87S
$$

CITY           SKY/WX    TMP DP  RH WIND       PRES   REMARKS
ABERDEEN       PTSUNNY   69  65  86 S9        29.94S
MOBRIDGE       CLOUDY    68  68 100 S5        29.93S FOG
BUFFALO          N/A     65  56  72 S3        29.95R
RAPID CITY     SUNNY     68  59  73 W7        30.04S
GLASGOW        CLOUDY    64  53  67 W3        29.94R HAZE
SIDNEY         SUNNY     64  59  82 S6        29.92S
WOLF POINT     SUNNY     65  54  67 W6        29.93R
GLENDIVE       SUNNY     66  54  63 W3        29.97R
MILES CITY     MOSUNNY   71  47  42 W5        30.00R HAZE
BAKER          SUNNY     70  53  54 W3        30.00S
$$

CITY           SKY/WX    TMP DP  RH WIND       PRES   REMARKS
BILLINGS       PTSUNNY   65  48  54 SW14      30.12R
GREAT FALLS    PTSUNNY   75  36  24 SW16      30.05R HAZE
$$



USA.gov is the U.S. government's official web portal to all federal, state and local government web resources and services.